Location: Santa Clara
(37.3540°N, 121.9540°W)
Time: 15:16:47
(UTC-07:00)

Transit 4A - All Passes

Search period start: 28 May 2022 00:00
Search period end: 07 June 2022 00:00
Orbit: 863 x 981 km, 66.8° (Epoch: 28 May)

Date Brightness Start Highest point End Pass type
(mag) Time Alt. Az. Time Alt. Az. Time Alt. Az.
28 May - 03:50:28 10° SSW 03:56:48 73° ESE 04:03:13 10° NNE visible
28 May - 05:39:05 10° W 05:43:48 21° NW 05:48:33 10° N daylight
28 May - 11:12:53 10° NNE 11:14:08 11° NE 11:15:23 10° NE daylight
28 May - 12:55:54 10° NNW 13:02:01 54° ENE 13:07:54 10° SE daylight
28 May - 14:43:17 10° WNW 14:47:52 22° WSW 14:52:21 10° SSW daylight
29 May - 02:16:51 10° SE 02:20:28 16° ESE 02:24:06 10° ENE visible
29 May - 03:59:41 10° SSW 04:06:03 77° WNW 04:12:31 10° NNE visible
29 May - 05:49:55 10° WNW 05:53:30 15° NW 05:57:05 10° N daylight
29 May - 11:20:29 10° N 11:23:56 15° NE 11:27:19 10° ENE daylight
29 May - 13:05:05 10° NNW 13:11:21 80° ENE 13:17:22 10° SSE daylight
29 May - 14:53:54 10° WNW 14:56:49 14° WSW 14:59:42 10° SW daylight
30 May - 02:24:27 10° SSE 02:29:26 25° ESE 02:34:28 10° NE visible
30 May - 04:09:11 10° SW 04:15:24 53° WNW 04:21:40 10° NNE visible
30 May - 06:01:49 10° NW 06:03:18 11° NW 06:04:47 10° NNW daylight
30 May - 11:29:00 10° N 11:33:37 21° NE 11:38:06 10° E daylight
30 May - 13:14:23 10° NNW 13:20:34 69° WSW 13:26:31 10° SSE daylight
31 May - 02:32:44 10° S 02:38:29 37° ESE 02:44:19 10° NE visible
31 May - 04:18:58 10° WSW 04:24:49 37° NW 04:30:43 10° NNE visible
31 May - 11:37:49 10° N 11:43:12 29° NE 11:48:24 10° ESE daylight
31 May - 13:23:52 10° NW 13:29:43 45° WSW 13:35:22 10° S daylight
01 Jun - 02:41:25 10° S 02:47:36 57° ESE 02:53:52 10° NE visible
01 Jun - 04:29:05 10° WSW 04:34:20 26° NW 04:39:37 10° N visible
01 Jun - 11:46:47 10° NNW 11:52:41 42° NE 11:58:21 10° SE daylight
01 Jun - 13:33:35 10° NW 13:38:47 29° WSW 13:43:51 10° SSW daylight
02 Jun - 01:09:38 10° ESE 01:11:26 11° E 01:13:16 10° E visible
02 Jun - 02:50:26 10° SSW 02:56:48 84° ESE 03:03:16 10° NNE visible
02 Jun - 04:39:35 10° W 04:43:58 19° NW 04:48:21 10° N visible
02 Jun - 10:12:06 10° NNE 10:14:21 12° NE 10:16:34 10° ENE daylight
02 Jun - 11:55:54 10° NNW 12:02:04 62° ENE 12:08:00 10° SE daylight
02 Jun - 13:43:40 10° WNW 13:47:47 19° WSW 13:51:49 10° SSW daylight
03 Jun - 01:16:11 10° SE 01:20:22 19° ESE 01:24:36 10° ENE visible
03 Jun - 02:59:45 10° SW 03:06:06 68° WNW 03:12:31 10° NNE visible
03 Jun - 04:50:39 10° WNW 04:53:41 14° NW 04:56:44 10° NNW visible
03 Jun - 10:20:13 10° N 10:24:06 17° NE 10:27:55 10° E daylight
03 Jun - 12:05:07 10° NNW 12:11:21 89° SW 12:17:21 10° SSE daylight
03 Jun - 13:54:55 10° W 13:56:42 11° W 13:58:28 10° WSW daylight
04 Jun - 01:24:04 10° SSE 01:29:23 29° ESE 01:34:44 10° NE visible
04 Jun - 03:09:21 10° SW 03:15:28 46° WNW 03:21:38 10° NNE visible
04 Jun - 10:28:51 10° N 10:33:45 23° NE 10:38:30 10° E daylight
04 Jun - 12:14:28 10° NW 12:20:33 60° WSW 12:26:24 10° S daylight
05 Jun - 01:32:30 10° S 01:38:27 43° ESE 01:44:28 10° NE visible
05 Jun - 03:19:15 10° WSW 03:24:55 33° NW 03:30:38 10° N visible
05 Jun - 10:37:44 10° N 10:43:17 33° NE 10:48:41 10° ESE daylight
05 Jun - 12:24:02 10° NW 12:29:40 39° WSW 12:35:08 10° S daylight
06 Jun - 01:41:19 10° SSW 01:47:36 65° ESE 01:53:57 10° NNE visible
06 Jun - 03:29:29 10° W 03:34:28 23° NW 03:39:29 10° N visible
06 Jun - 10:46:45 10° NNW 10:52:44 48° ENE 10:58:31 10° SE daylight
06 Jun - 12:33:50 10° NW 12:38:42 25° WSW 12:43:28 10° SSW daylight
